sat.trackr.live / text

‹ back to catalog

YAOGAN-17 01A

NORAD 39239 · 2013-046A

PAYLOAD ACTIVE UNKNOWN

§ Identity

Operator
Country
PRC
Launch date
2013-09-01
Launch site
JSC
Launch vehicle
Mass (kg)
RCS (m²)
2.59

External: N2YO · Heavens-Above · Gunter

§ Orbital elements

Epoch: 2026-05-25T04:32:37.425984Z

Period
107.02 min
Inclination
63.3840°
Eccentricity
0.0424357
Mean motion
13.45501705 rev/d
Perigee alt
772.0 km
Apogee alt
1,405.7 km
Semi-major
7,467.0 km
B*
4.4526e-5
RAAN
149.5608°
Arg perigee
11.7554°
Mean anomaly
349.3011°
Rev number
62,519

§ Raw data

YAOGAN-17 01A1 39239U 13046A   26145.18932206 -.00000045  00000+0  44526-4 0  99932 39239  63.3840 149.5608 0424357  11.7554 349.3011 13.45501705625198

JSON: /api/v1/satellites/39239 · /tle

For live sub-satellite position, see the globe view (requires WebGL).

§ Visibility from observer

Set your observer location to see the next 7 days of passes ≥ 10°. The values pass through the URL so the page stays shareable.

No JS? Fill the form by hand. The geolocation button needs JavaScript.